Location: Fairhaven
(34.9340°N, 89.7987°W)
Time: 02:41:01
(UTC+00:00)

Cosmos 1484 Rocket - Pass Details

Date: 13 February 2026
Orbit: 437 x 465 km, 97.6° (Epoch: 6 March)

Event Time Altitude Azimuth Distance (km) Brightness Sun altitude
Rises 12:10:48 0° 5° (N) 2,511 6.1 -8.1°
Reaches altitude 10° 12:12:54 10° 360° (N) 1,631 5.1 -7.6°
Maximum altitude 12:16:17 48° 285° (WNW) 620 2.7 -7.0°
Drops below altitude 10° 12:19:38 10° 210° (SSW) 1,616 5.0 -6.3°
Sets 12:21:42 0° 204° (SSW) 2,484 6.0 -5.9°
